This is the latest recevied weather packets stored in our database for station/object KI4BIY. If no packets are shown the sender has not sent any weather packets the latest 10 day(s).
| Time | Temp. | Humidity | Pressure | Rain* | Wind** | Luminosity | Snow |
|---|---|---|---|---|---|---|---|
| 1778099120 | 12.78° C | 97% | 1014 hPa | 1.27 mm | - | 41 W/m² | - |
| 1778098816 | 12.78° C | 97% | 1013.9 hPa | 1.27 mm | - | 55 W/m² | - |
| 1778098514 | 12.78° C | 96% | 1014.3 hPa | 0 mm | - | 72 W/m² | - |
| 1778098210 | 12.78° C | 95% | 1013.9 hPa | 1.78 mm | - | 41 W/m² | - |
| 1778097907 | 12.78° C | 95% | 1014.3 hPa | 1.78 mm | - | 35 W/m² | - |
| 1778097603 | 12.78° C | 95% | 1014.7 hPa | 0 mm | - | 51 W/m² | - |
| 1778097301 | 12.78° C | 95% | 1014.7 hPa | 0 mm | - | 35 W/m² | - |
| 1778096996 | 12.78° C | 95% | 1014.9 hPa | 0 mm | - | 53 W/m² | - |
| 1778096694 | 12.78° C | 95% | 1014.5 hPa | 0 mm | - | 73 W/m² | - |
| 1778096391 | 12.78° C | 94% | 1014.2 hPa | 0 mm | - | 61 W/m² | - |
| 1778096088 | 12.78° C | 93% | 1014 hPa | 0 mm | - | 80 W/m² | - |
| 1778095784 | 12.78° C | 95% | 1014.1 hPa | 0 mm | - | 112 W/m² | - |
| 1778095482 | 12.78° C | 96% | 1014.6 hPa | 0 mm | - | 70 W/m² | - |
| 1778095178 | 12.78° C | 96% | 1014.8 hPa | 0 mm | - | 90 W/m² | - |
| 1778094875 | 12.78° C | 96% | 1015.1 hPa | 0 mm | - | 66 W/m² | - |
| 1778094571 | 12.78° C | 96% | 1015.2 hPa | 0 mm | - | 45 W/m² | - |
| 1778094268 | 12.78° C | 96% | 1015.1 hPa | 0 mm | - | 51 W/m² | - |
| 1778093965 | 12.78° C | 95% | 1014.6 hPa | 0 mm | - | 59 W/m² | - |
| 1778093662 | 12.78° C | 94% | 1014.5 hPa | 0 mm | - | 81 W/m² | - |
| 1778093359 | 12.78° C | 96% | 1014.1 hPa | 0 mm | - | 121 W/m² | - |
| 1778093056 | 13.33° C | 97% | 1014.2 hPa | 0 mm | - | 138 W/m² | - |
| 1778092754 | 13.33° C | 96% | 1014.1 hPa | 0 mm | - | 135 W/m² | - |
| 1778092449 | 12.78° C | 97% | 1014.3 hPa | 0 mm | - | 126 W/m² | - |
| 1778092146 | 12.78° C | 97% | 1014 hPa | 0 mm | - | 95 W/m² | - |
| 1778091843 | 12.78° C | 97% | 1014.3 hPa | 0 mm | - | 111 W/m² | - |
* Rain latest hour (hover to see other rain measurements)
** Current wind speed in m/s (hover to see current wind gust speed)